Abingdon, VA

5:06 PM EDT on April 23, 2017 (GMT -0400)
Virginia Highlands

Weather History for KVJI - May, 2014

Change the Weather History Date:

Monday, May 5, 2014

  Actual Average (KTRI) Record (KTRI)
Temperature  
Mean Temperature 67 °F -  
Max Temperature 82 °F 72 °F 89 °F (1949)
Min Temperature 52 °F 45 °F 30 °F (1940)
Cooling Degree Days 2    
Growing Degree Days 17 (Base 50)    
Moisture  
Dew Point 48 °F    
Average Humidity 52    
Maximum Humidity 82    
Minimum Humidity 27    
Precipitation  
Precipitation 0.00 in - - ()
Sea Level Pressure  
Sea Level Pressure 29.97 in    
Wind  
Wind Speed 4 mph (West)    
Max Wind Speed 18 mph    
Max Gust Speed 26 mph    
Visibility 10 miles    
Events      
Averages and records for this station are not official NWS values.
T = Trace of Precipitation, MM = Missing Value Source: NWS Daily Summary

Daily Weather History Graph

Daily Weather History Graph

Search for Another Location

Airport or City:

Trip Planner

Search our weather history database for the weather conditions in past years. The results will help you decide how hot, cold, wet, or windy it might be!

Date:

Astronomy

May. 05, 2014 Rise Set
Actual Time 6:30 AM EDT 8:20 PM EDT
Civil Twilight 6:02 AM EDT 8:48 PM EDT
Nautical Twilight 5:28 AM EDT 9:22 PM EDT
Astronomical Twilight 4:51 AM EDT 9:58 PM EDT
Moon 11:48 AM EDT (5/5) 1:03 AM EDT (5/5)
Length of Visible Light 14h 46m
Length of Day
13h 50m
Waxing Crescent, 36% of the Moon is Illuminated
May 5
Waxing Crescent
May 6
First Quarter
May 14
Full
May 21
Last Quarter
May 28
New

Hourly Weather History & Observations

Time (EDT) Temp. Dew Point Humidity Pressure Visibility Wind Dir Wind Speed Gust Speed Precip Events Conditions
12:15 AM 61.2 °F 45.3 °F 56% 30.00 in 10.0 mi Calm Calm - N/A   Clear
12:35 AM 60.6 °F 44.8 °F 56% 30.00 in 10.0 mi Calm Calm - N/A   Clear
12:55 AM 60.3 °F 45.1 °F 57% 30.00 in 10.0 mi Calm Calm - N/A   Clear
1:15 AM 59.2 °F 45.5 °F 60% 30.00 in 10.0 mi Calm Calm - N/A   Clear
1:35 AM 59.2 °F 45.3 °F 60% 30.00 in 10.0 mi Calm Calm - N/A   Clear
1:55 AM 57.4 °F 45.9 °F 65% 30.00 in 10.0 mi Calm Calm - N/A   Clear
2:15 AM 56.7 °F 46.4 °F 69% 30.00 in 10.0 mi Calm Calm - N/A   Clear
2:35 AM 55.0 °F 46.6 °F 73% 30.00 in 10.0 mi Calm Calm - N/A   Clear
2:55 AM 55.4 °F 46.6 °F 72% 30.00 in 10.0 mi Calm Calm - N/A   Clear
3:15 AM 53.6 °F 46.8 °F 78% 29.99 in 10.0 mi Calm Calm - N/A   Clear
3:35 AM 54.5 °F 46.8 °F 75% 29.99 in 10.0 mi Calm Calm - N/A   Clear
3:55 AM 54.0 °F 46.9 °F 77% 29.99 in 10.0 mi Calm Calm - N/A   Clear
4:15 AM 54.1 °F 46.9 °F 77% 29.99 in 10.0 mi Calm Calm - N/A   Clear
4:35 AM 55.0 °F 47.5 °F 76% 30.00 in 10.0 mi Calm Calm - N/A   Clear
4:55 AM 53.6 °F 47.7 °F 80% 30.00 in 10.0 mi Calm Calm - N/A   Clear
5:15 AM 53.2 °F 46.4 °F 78% 30.01 in 10.0 mi Calm Calm - N/A   Clear
5:35 AM 53.4 °F 46.9 °F 79% 30.01 in 10.0 mi Calm Calm - N/A   Clear
5:55 AM 53.6 °F 47.5 °F 80% 30.01 in 10.0 mi Calm Calm - N/A   Clear
6:15 AM 55.2 °F 48.2 °F 77% 30.02 in 10.0 mi Calm Calm - N/A   Clear
6:35 AM 52.7 °F 47.3 °F 82% 30.02 in 10.0 mi Calm Calm - N/A   Clear
6:55 AM 53.4 °F 47.3 °F 80% 30.03 in 10.0 mi Calm Calm - N/A   Clear
7:10 AM 53.2 °F 47.5 °F 81% 30.03 in 10.0 mi Calm Calm - N/A   Clear
7:41 AM 55.4 °F 48.2 °F 77% 30.05 in 10.0 mi Calm Calm - N/A   Clear
7:55 AM 55.8 °F 48.6 °F 77% 30.05 in 10.0 mi Calm Calm - N/A   Clear
8:15 AM 55.4 °F 49.5 °F 80% 30.05 in 10.0 mi Calm Calm - N/A   Clear
8:35 AM 58.8 °F 51.8 °F 77% 30.05 in 10.0 mi Calm Calm - N/A   Scattered Clouds
8:55 AM 63.3 °F 51.8 °F 66% 30.05 in 10.0 mi West 3.5 mph - N/A   Clear
9:15 AM 66.0 °F 52.3 °F 61% 30.05 in 10.0 mi West 5.8 mph - N/A   Clear
9:35 AM 67.6 °F 51.3 °F 56% 30.04 in 10.0 mi West 9.2 mph - N/A   Clear
9:55 AM 68.9 °F 51.3 °F 53% 30.03 in 10.0 mi West 10.4 mph - N/A   Clear
10:15 AM 70.0 °F 51.8 °F 52% 30.03 in 10.0 mi West 9.2 mph - N/A   Clear
10:35 AM 71.4 °F 51.4 °F 49% 30.03 in 10.0 mi West 11.5 mph 17.3 mph N/A   Clear
10:55 AM 72.5 °F 51.1 °F 47% 30.02 in 10.0 mi WSW 12.7 mph 17.3 mph N/A   Clear
11:15 AM 74.3 °F 51.3 °F 44% 30.01 in 10.0 mi West 12.7 mph 16.1 mph N/A   Clear
11:35 AM 75.4 °F 51.3 °F 43% 30.01 in 10.0 mi West 12.7 mph 18.4 mph N/A   Clear
11:55 AM 75.7 °F 50.9 °F 42% 30.01 in 10.0 mi West 15.0 mph 19.6 mph N/A   Clear
12:15 PM 77.2 °F 50.4 °F 39% 30.00 in 10.0 mi West 15.0 mph 19.6 mph N/A   Clear
12:35 PM 77.2 °F 50.0 °F 38% 30.00 in 10.0 mi West 15.0 mph 21.9 mph N/A   Clear
12:55 PM 77.9 °F 50.0 °F 38% 29.99 in 10.0 mi West 17.3 mph 25.3 mph N/A   Clear
1:15 PM 77.9 °F 50.0 °F 38% 29.98 in 10.0 mi West 16.1 mph 26.5 mph N/A   Clear
1:35 PM 79.2 °F 50.4 °F 36% 29.97 in 10.0 mi West 17.3 mph 23.0 mph N/A   Clear
1:55 PM 78.6 °F 49.1 °F 35% 29.96 in 10.0 mi WNW 16.1 mph 25.3 mph N/A   Clear
2:15 PM 78.8 °F 48.6 °F 34% 29.96 in 10.0 mi West 18.4 mph 21.9 mph N/A   Clear
2:35 PM 80.4 °F 49.1 °F 33% 29.95 in 10.0 mi West 15.0 mph 24.2 mph N/A   Clear
2:55 PM 81.5 °F 48.0 °F 31% 29.94 in 10.0 mi West 16.1 mph 19.6 mph N/A   Clear
3:15 PM 81.7 °F 45.5 °F 28% 29.94 in 10.0 mi WNW 18.4 mph 21.9 mph N/A   Clear
3:35 PM 82.6 °F 46.0 °F 28% 29.94 in 10.0 mi WNW 8.1 mph 19.6 mph N/A   Clear
3:55 PM 81.0 °F 44.4 °F 27% 29.93 in 10.0 mi West 8.1 mph 21.9 mph N/A   Clear
4:15 PM 79.7 °F 45.1 °F 29% 29.91 in 10.0 mi West 10.4 mph - N/A   Clear
4:35 PM 80.4 °F 45.9 °F 30% 29.91 in 10.0 mi West 13.8 mph - N/A   Clear
4:55 PM 81.3 °F 46.0 °F 29% 29.90 in 10.0 mi West 12.7 mph 19.6 mph N/A   Clear
5:15 PM 79.7 °F 45.7 °F 30% 29.89 in 10.0 mi West 11.5 mph 21.9 mph N/A   Clear
5:35 PM 79.7 °F 45.5 °F 30% 29.89 in 10.0 mi WNW 12.7 mph 17.3 mph N/A   Clear
5:55 PM 81.1 °F 45.7 °F 29% 29.89 in 10.0 mi West 13.8 mph 18.4 mph N/A   Clear
6:15 PM 81.1 °F 45.0 °F 28% 29.89 in 10.0 mi West 12.7 mph 23.0 mph N/A   Clear
6:35 PM 80.1 °F 45.7 °F 30% 29.89 in 10.0 mi West 15.0 mph 19.6 mph N/A   Clear
6:55 PM 79.7 °F 46.4 °F 31% 29.89 in 10.0 mi West 12.7 mph 19.6 mph N/A   Clear
7:15 PM 79.3 °F 46.9 °F 32% 29.89 in 10.0 mi West 8.1 mph 17.3 mph N/A   Clear
7:35 PM 78.3 °F 47.1 °F 33% 29.89 in 10.0 mi West 12.7 mph 18.4 mph N/A   Clear
7:55 PM 77.4 °F 47.7 °F 35% 29.90 in 10.0 mi West 6.9 mph - N/A   Clear
8:15 PM 75.2 °F 49.1 °F 40% 29.90 in 10.0 mi WSW 8.1 mph - N/A   Clear
8:35 PM 74.3 °F 49.5 °F 41% 29.91 in 10.0 mi WSW 4.6 mph - N/A   Clear
8:55 PM 73.2 °F 50.0 °F 44% 29.91 in 10.0 mi WSW 4.6 mph - N/A   Clear
9:15 PM 71.8 °F 50.4 °F 47% 29.90 in 10.0 mi West 3.5 mph - N/A   Clear
9:35 PM 71.4 °F 50.9 °F 48% 29.90 in 10.0 mi West 3.5 mph - N/A   Clear
9:55 PM 71.2 °F 50.9 °F 49% 29.91 in 10.0 mi Calm Calm - N/A   Clear
10:15 PM 70.3 °F 51.1 °F 50% 29.91 in 10.0 mi Calm Calm - N/A   Clear
10:35 PM 69.8 °F 51.3 °F 52% 29.91 in 10.0 mi West 4.6 mph - N/A   Clear
10:55 PM 69.8 °F 51.1 °F 51% 29.91 in 10.0 mi Calm Calm - N/A   Clear
11:15 PM 69.1 °F 51.1 °F 53% 29.92 in 10.0 mi West 3.5 mph - N/A   Clear
11:35 PM 66.7 °F 51.6 °F 58% 29.92 in 10.0 mi Calm Calm - N/A   Clear
11:55 PM 66.4 °F 51.8 °F 59% 29.92 in 10.0 mi Calm Calm - N/A   Clear